Regional Weather Roundup
Issued by NWS

Home | Current Version | Previous Version | Text Only | Print | Product List | Glossary Off
Versions: 1 2 3 4 5 6 7 8 9 10 11 12 13 14 15 16 17 18 19 20 21 22 23 24 25 26 27 28 29 30 31 32 33 34 35 36 37 38 39 40 41 42 43 44 45 46 47 48 49 50

037
ASUS43 KFSD 241410
RWRSD

WEATHER ROUNDUP FOR SOUTH DAKOTA
NATIONAL WEATHER SERVICE SIOUX FALLS SD
900 AM CDT TUE MAY 24 2016

NOTE: "FAIR" INDICATES FEW OR NO CLOUDS BELOW 12,000 FEET WITH NO
SIGNIFICANT WEATHER AND/OR OBSTRUCTIONS TO VISIBILITY.


SDZ001>005-009-010-012>017-241500-
NORTHWEST AND NORTH CENTRAL SOUTH DAKOTA

CITY           SKY/WX    TMP DP  RH WIND       PRES   REMARKS
BUFFALO          N/A     56  41  57 N9        29.84S
FAITH            N/A     57  41  55 E5        29.89R
MOBRIDGE       SUNNY     59  47  64 NW6       29.87R
$$

SDZ012>016-024>037-041>051-057-063-072>074-241500-
SOUTHWEST AND SOUTH CENTRAL SOUTH DAKOTA

CITY           SKY/WX    TMP DP  RH WIND       PRES   REMARKS
RAPID CTY ARPT SUNNY     59  36  42 N9        29.92R
PIERRE         SUNNY     59  49  69 E10       29.85R
CUSTER         SUNNY     53  33  46 NE8       29.96R
ELLSWORTH AFB  SUNNY     59  36  41 N7        29.92R
PHILIP         SUNNY     59  46  62 NE7       29.89R
PINE RIDGE     SUNNY     53  40  61 CALM      29.92R
WINNER         FAIR      62  48  60 SW6       29.87S
$$

SDZ004>011-016>023-039-040-241500-
NORTHEAST SOUTH DAKOTA

CITY           SKY/WX    TMP DP  RH WIND       PRES   REMARKS
ABERDEEN       SUNNY     66  50  56 E9        29.86R
WATERTOWN      MOSUNNY   66  54  65 E8        29.85S
SISSETON         N/A     68  49  50 NE10G20   29.85R
$$

SDZ017-020-022-023-036>040-048>070-241500-
SOUTHEAST SOUTH DAKOTA

CITY           SKY/WX    TMP DP  RH WIND       PRES   REMARKS
SIOUX FALLS    CLOUDY    65  61  87 SW8       29.85S
HURON          SUNNY     63  57  81 W3        29.83R
CHAMBERLAIN    SUNNY     65  53  66 SW6       29.85S
MITCHELL       SUNNY     65  59  81 S6        29.83F
YANKTON        CLOUDY    64  57  77 S3        29.84S
$$

ABBREVIATIONS USED IN REMARKS
   TC - TEMPERATURE IN CELSIUS
  WCI - WIND CHILL INDEX
   HX - HEAT INDEX
  VSB - VISIBILITY





USA.gov is the U.S. government's official web portal to all federal, state and local government web resources and services.